FW0405 Everett WA US current weather conditions

sailwx.info

Wind from 231

Air temperature 11.7° C
Dewpoint 9.6° C

Last reported at 2020-Jun-03 08:05 UTC.
Time now 2020-Jun-03 08:45 UTC

Location: N 48°00' W 122°12'.
View on Google Maps.

See reports from other nearby stations

  
Tides and Currents Weather Stations Pressure Air Temp Water Temp Dewpoint Dewpoint Depression Visibility Wind Speed Wind Dir Waves Ship Positions
date/time (UTC)wind fromknots sea level pressurealtimeterstation pressurevisibilityair tempwater tempwave heightnotes
2020-Jun-03 08:05 231 11.7
2020-Jun-03 08:00 186 11.7
2020-Jun-03 07:55 248 11.7
2020-Jun-03 07:50 292 11.7
2020-Jun-03 07:45 180 11.7
2020-Jun-03 07:40 245 11.7
2020-Jun-03 07:35 208 12.2
2020-Jun-03 07:30 197 12.2
2020-Jun-03 07:25 244 1 gusting 2 12.2
2020-Jun-03 07:20 261 2 gusting 2 11.7
2020-Jun-03 07:15 242 1 gusting 2 11.7
2020-Jun-03 07:10 239 1 gusting 1 11.7
2020-Jun-03 07:05 217 1 gusting 2 11.7
2020-Jun-03 07:00 248 11.7
2020-Jun-03 06:55 227 12.2
2020-Jun-03 06:50 211 12.2
2020-Jun-03 06:45 202 12.2
2020-Jun-03 06:40 260 12.2
2020-Jun-03 06:35 238 12.8
2020-Jun-03 06:30 12.8
2020-Jun-03 06:25 270 1 gusting 1 12.8
2020-Jun-03 06:20 282 1 gusting 2 12.8
2020-Jun-03 06:15 262 1 gusting 2 12.8
2020-Jun-03 06:10 235 12.8
2020-Jun-03 06:05 248 0 gusting 1 12.8
2020-Jun-03 06:00 237 0 gusting 1 12.8
2020-Jun-03 05:55 270 1 gusting 2 12.8
2020-Jun-03 05:50 248 2 gusting 2 12.8
2020-Jun-03 05:45 248 1 gusting 4 12.8
2020-Jun-03 05:40 239 2 gusting 4 12.8
2020-Jun-03 05:35 250 1 gusting 2 12.8
2020-Jun-03 05:30 274 2 gusting 2 12.8
2020-Jun-03 05:25 262 1 gusting 2 12.8
2020-Jun-03 05:20 270 2 gusting 4 12.8
2020-Jun-03 05:05 286 1 gusting 1 12.8
2020-Jun-03 05:00 270 2 gusting 4 12.8
2020-Jun-03 04:55 256 12.8
2020-Jun-03 04:50 212 12.8
2020-Jun-03 04:45 180 12.8
2020-Jun-03 04:40 191 12.8
2020-Jun-03 04:35 186 12.8
2020-Jun-03 04:30 216 0 gusting 4 12.8
2020-Jun-03 04:25 268 0 gusting 1 12.8
2020-Jun-03 04:20 225 1 gusting 2 12.8
2020-Jun-03 04:15 278 0 gusting 1 12.8
2020-Jun-03 04:10 236 0 gusting 1 12.8
2020-Jun-03 04:05 243 2 gusting 4 12.8
2020-Jun-03 04:00 258 1 gusting 4 12.8
2020-Jun-03 03:55 207 1 gusting 4 12.8
2020-Jun-03 03:50 256 2 gusting 5 12.8
2020-Jun-03 03:45 288 3 gusting 5 12.8
2020-Jun-03 03:40 266 2 gusting 4 12.8
2020-Jun-03 03:35 275 3 gusting 5 12.8
2020-Jun-03 03:30 296 2 gusting 4 12.8
2020-Jun-03 03:25 285 4 gusting 5 12.8
2020-Jun-03 03:20 258 2 gusting 5 12.8
2020-Jun-03 03:15 225 3 gusting 5 12.8
2020-Jun-03 03:10 222 2 gusting 5 12.8
2020-Jun-03 03:05 248 3 gusting 6 12.8
2020-Jun-03 03:00 283 2 gusting 2 13.3
2020-Jun-03 02:55 282 2 gusting 4 13.3
2020-Jun-03 02:50 279 3 gusting 4 13.3
2020-Jun-03 02:45 290 2 gusting 4 13.3
2020-Jun-03 02:40 280 1 gusting 2 13.3
2020-Jun-03 02:35 244 2 gusting 5 13.3
2020-Jun-03 02:30 236 2 gusting 4 13.3
2020-Jun-03 02:25 251 4 gusting 5 13.3
2020-Jun-03 02:20 267 3 gusting 6 13.3
2020-Jun-03 02:15 244 2 gusting 5 13.3
2020-Jun-03 02:10 270 5 gusting 6 13.3
2020-Jun-03 02:02 235 4 gusting 6 13.9
2020-Jun-03 01:55 261 3 gusting 6 13.9
2020-Jun-03 01:50 282 4 gusting 5 13.9
2020-Jun-03 01:45 270 4 gusting 6 13.9
2020-Jun-03 01:40 294 5 gusting 6 14.4
2020-Jun-03 01:35 278 4 gusting 6 15.0
2020-Jun-03 01:30 250 4 gusting 5 15.0
2020-Jun-03 01:25 299 3 gusting 5 16.1
2020-Jun-03 01:20 270 3 gusting 4 16.7
2020-Jun-03 01:15 052 1 gusting 4 16.1
2020-Jun-03 01:10 099 4 gusting 5 16.7
2020-Jun-03 01:05 147 2 gusting 5 16.1
2020-Jun-03 01:00 167 2 gusting 2 15.6
2020-Jun-03 00:55 257 15.0
2020-Jun-03 00:50 180 1 gusting 2 15.0
2020-Jun-03 00:45 296 14.4
2020-Jun-03 00:40 272 2 gusting 4 15.0
2020-Jun-03 00:35 321 1 gusting 2 15.0
2020-Jun-03 00:30 14.4
2020-Jun-03 00:25 276 2 gusting 4 14.4
2020-Jun-02 23:25 315 2 gusting 5 12.8
2020-Jun-02 23:20 339 4 gusting 6 12.8
2020-Jun-02 23:15 005 3 gusting 4 12.8
2020-Jun-02 23:10 323 1 gusting 4 12.8
2020-Jun-02 23:05 347 1 gusting 4 12.8
2020-Jun-02 23:00 12.8
2020-Jun-02 22:55 324 0 gusting 2 12.8
2020-Jun-02 22:50 344 1 gusting 4 12.2
2020-Jun-02 22:45 12.2
2020-Jun-02 22:40 300 5 gusting 6 12.2
2020-Jun-02 22:35 292 4 gusting 6 12.2
2020-Jun-02 22:30 294 6 gusting 8 12.8
2020-Jun-02 22:25 292 4 gusting 11 12.8
2020-Jun-02 22:20 270 5 gusting 6 13.3
2020-Jun-02 22:15 294 6 gusting 8 13.3
2020-Jun-02 22:10 310 6 gusting 7 13.3
2020-Jun-02 22:05 276 5 gusting 7 12.8
2020-Jun-02 22:00 273 5 gusting 8 12.8
2020-Jun-02 21:55 285 6 gusting 8 13.3
2020-Jun-02 21:50 262 6 gusting 8 13.9
2020-Jun-02 21:45 264 5 gusting 8 13.9
2020-Jun-02 21:40 243 4 gusting 6 14.4
2020-Jun-02 21:35 263 5 gusting 7 14.4
2020-Jun-02 21:30 248 4 gusting 5 15.0
2020-Jun-02 21:25 206 1 gusting 4 15.0
2020-Jun-02 21:20 272 2 gusting 4 15.0
2020-Jun-02 21:15 305 4 gusting 6 15.0
2020-Jun-02 21:10 291 4 gusting 6 15.0
2020-Jun-02 21:05 277 4 gusting 6 15.0
2020-Jun-02 21:00 271 2 gusting 5 15.0
2020-Jun-02 20:55 267 2 gusting 2 15.0
2020-Jun-02 20:50 247 4 gusting 5 15.0
2020-Jun-02 20:45 272 2 gusting 4 15.0
2020-Jun-02 20:40 282 1 gusting 2 14.4
2020-Jun-02 20:35 262 2 gusting 4 14.4
2020-Jun-02 20:30 292 2 gusting 5 14.4
2020-Jun-02 20:25 289 5 gusting 6 14.4
2020-Jun-02 20:20 264 3 gusting 6 14.4
2020-Jun-02 20:15 209 4 gusting 5 15.0
2020-Jun-02 20:10 271 4 gusting 6 15.0
2020-Jun-02 20:05 272 4 gusting 6 15.0
2020-Jun-02 20:00 242 6 gusting 6 15.0
2020-Jun-02 19:55 257 6 gusting 6 15.6
2020-Jun-02 19:50 336 4 gusting 6 15.6
2020-Jun-02 19:45 270 5 gusting 6 16.1
2020-Jun-02 19:40 264 4 gusting 6 15.6
2020-Jun-02 19:35 263 4 gusting 6 15.6
2020-Jun-02 19:30 225 5 gusting 6 15.6
2020-Jun-02 19:25 277 4 gusting 7 16.1
2020-Jun-02 19:20 270 4 gusting 6 16.1
2020-Jun-02 19:15 241 4 gusting 6 16.7
2020-Jun-02 19:10 270 4 gusting 7 16.1
2020-Jun-02 19:05 270 4 gusting 6 16.1
2020-Jun-02 19:00 262 5 gusting 7 16.1
2020-Jun-02 18:55 248 5 gusting 7 16.1
2020-Jun-02 18:50 269 4 gusting 6 16.1
2020-Jun-02 18:45 273 4 gusting 6 16.7
2020-Jun-02 18:40 223 5 gusting 6 16.7
2020-Jun-02 18:35 257 6 gusting 6 17.2
2020-Jun-02 18:30 251 4 gusting 6 17.2
2020-Jun-02 18:25 235 4 gusting 6 17.2
2020-Jun-02 18:20 268 3 gusting 6 17.2
2020-Jun-02 18:15 297 3 gusting 5 17.8
2020-Jun-02 18:10 217 1 gusting 4 17.2
2020-Jun-02 18:05 351 1 gusting 2 16.1
2020-Jun-02 18:00 354 0 gusting 2 16.7
2020-Jun-02 17:55 236 2 gusting 4 16.7
2020-Jun-02 17:50 285 2 gusting 5 16.1
2020-Jun-02 17:45 270 2 gusting 5 16.1
2020-Jun-02 17:40 243 4 gusting 5 16.1
2020-Jun-02 17:35 250 4 gusting 6 16.1
2020-Jun-02 17:30 269 4 gusting 5 16.1
2020-Jun-02 17:25 253 2 gusting 6 15.6
2020-Jun-02 17:20 255 5 gusting 6 16.1
2020-Jun-02 17:15 264 2 gusting 5 15.6
2020-Jun-02 17:10 275 1 gusting 2 15.6
2020-Jun-02 17:05 225 2 gusting 4 15.6
2020-Jun-02 17:00 297 3 gusting 4 15.6
2020-Jun-02 16:55 307 4 gusting 6 16.1
2020-Jun-02 16:50 15.6
2020-Jun-02 16:45 111 2 gusting 4 16.1
2020-Jun-02 16:40 15.6
2020-Jun-02 16:35 257 0 gusting 1 15.0
2020-Jun-02 16:30 142 2 gusting 4 15.0
2020-Jun-02 16:25 010 1 gusting 1 15.0
2020-Jun-02 16:20 126 0 gusting 1 15.0
2020-Jun-02 16:15 166 1 gusting 2 15.0
2020-Jun-02 16:10 14.4
2020-Jun-02 16:05 171 2 gusting 4 14.4
2020-Jun-02 16:00 111 0 gusting 2 14.4
2020-Jun-02 15:55 168 2 gusting 4 13.9
2020-Jun-02 15:50 071 2 gusting 4 13.9
2020-Jun-02 15:45 084 2 gusting 4 13.3
2020-Jun-02 15:40 065 2 gusting 2 13.3
2020-Jun-02 15:35 049 2 gusting 4 12.8
2020-Jun-02 15:30 165 2 gusting 4 12.8
2020-Jun-02 15:25 069 2 gusting 2 12.8
2020-Jun-02 15:20 048 4 gusting 4 12.8
2020-Jun-02 15:15 068 2 gusting 4 12.2
2020-Jun-02 15:10 065 2 gusting 4 12.2
2020-Jun-02 15:05 021 1 gusting 4 12.8
2020-Jun-02 15:00 092 1 gusting 2 12.8
2020-Jun-02 14:55 145 11.7
2020-Jun-02 14:50 140 0 gusting 1 11.1
2020-Jun-02 14:45 180 1 gusting 2 11.7
2020-Jun-02 14:40 131 0 gusting 1 11.1
2020-Jun-02 14:35 150 0 gusting 2 10.6
2020-Jun-02 14:30 124 1 gusting 1 10.6
2020-Jun-02 14:25 109 10.0
2020-Jun-02 14:20 106 9.4
2020-Jun-02 14:15 171 9.4
2020-Jun-02 14:10 123 1 gusting 4 9.4
2020-Jun-02 14:05 127 3 gusting 4 9.4
2020-Jun-02 14:00 149 1 gusting 2 9.4
2020-Jun-02 13:55 135 2 gusting 4 9.4
2020-Jun-02 13:50 098 2 gusting 4 9.4
2020-Jun-02 13:45 141 2 gusting 2 9.4
2020-Jun-02 13:40 125 1 gusting 2 9.4
2020-Jun-02 13:35 156 2 gusting 5 8.9
2020-Jun-02 13:30 149 2 gusting 4 8.3
2020-Jun-02 13:25 112 2 gusting 4 8.3
2020-Jun-02 13:20 099 1 gusting 1 8.3
2020-Jun-02 13:15 084 1 gusting 1 8.3
2020-Jun-02 13:10 122 1 gusting 2 8.3
2020-Jun-02 13:05 100 1 gusting 2 8.3
2020-Jun-02 13:00 149 1 gusting 2 8.3
2020-Jun-02 12:55 180 0 gusting 1 8.3
2020-Jun-02 12:50 182 0 gusting 1 8.3
2020-Jun-02 12:45 8.3
2020-Jun-02 12:40 8.3
2020-Jun-02 12:35 8.3
2020-Jun-02 12:30 8.3
2020-Jun-02 12:25 8.3
2020-Jun-02 12:20 8.3
2020-Jun-02 12:15 8.3
2020-Jun-02 12:10 8.3
2020-Jun-02 12:05 335 1 gusting 1 8.3
2020-Jun-02 12:00 334 8.3
2020-Jun-02 11:55 8.3
2020-Jun-02 11:50 8.3
2020-Jun-02 11:45 349 1 gusting 2 8.3
2020-Jun-02 11:40 8.3
2020-Jun-02 11:35 357 1 gusting 2 8.3
2020-Jun-02 11:30 347 0 gusting 1 8.9
2020-Jun-02 11:25 8.9
2020-Jun-02 11:20 8.9
2020-Jun-02 11:15 325 0 gusting 1 8.9
2020-Jun-02 11:10 317 1 gusting 1 8.9
2020-Jun-02 11:05 338 1 gusting 4 8.9
2020-Jun-02 11:00 8.9
2020-Jun-02 10:55 350 1 gusting 1 8.9
2020-Jun-02 10:50 334 1 gusting 2 8.9
2020-Jun-02 10:45 327 1 gusting 2 8.9
2020-Jun-02 10:40 324 1 gusting 2 8.9
2020-Jun-02 10:35 294 1 gusting 2 8.9
2020-Jun-02 10:30 348 0 gusting 4 8.9
2020-Jun-02 10:25 035 8.9
2020-Jun-02 10:20 039 8.9
2020-Jun-02 10:15 022 8.9
2020-Jun-02 10:10 9.4
2020-Jun-02 10:05 347 9.4
2020-Jun-02 10:00 336 3 gusting 5 9.4
2020-Jun-02 09:55 321 3 gusting 5 9.4
2020-Jun-02 09:50 008 8.9
2020-Jun-02 09:45 034 0 gusting 2 8.9
2020-Jun-02 09:40 9.4
2020-Jun-02 09:35 9.4
2020-Jun-02 09:30 9.4
2020-Jun-02 09:25 017 1 gusting 4 9.4
2020-Jun-02 09:20 337 1 gusting 1 9.4
2020-Jun-02 09:15 9.4
2020-Jun-02 09:10 9.4
2020-Jun-02 09:05 352 1 gusting 4 9.4
2020-Jun-02 09:00 351 1 gusting 4 9.4
2020-Jun-02 08:55 332 0 gusting 1 9.4
2020-Jun-02 08:50 307 1 gusting 2 9.4
2020-Jun-02 08:45 337 9.4
2020-Jun-02 08:40 327 0 gusting 1 9.4
2020-Jun-02 08:35 321 1 gusting 2 9.4
2020-Jun-02 08:30 279 1 gusting 2 9.4
2020-Jun-02 08:25 322 0 gusting 1 10.0
2020-Jun-02 08:20 351 1 gusting 1 10.0
2020-Jun-02 08:15 308 0 gusting 1 10.0
2020-Jun-02 08:10 10.0
2020-Jun-02 08:05 10.0
2020-Jun-02 08:00 10.0
2020-Jun-02 07:55 10.0
2020-Jun-02 07:50 013 1 gusting 2 10.6
2020-Jun-02 07:45 177 0 gusting 2 10.6
2020-Jun-02 07:40 059 0 gusting 2 10.6
2020-Jun-02 07:35 035 2 gusting 2 10.6
2020-Jun-02 07:30 10.6
2020-Jun-02 07:25 348 1 gusting 4 10.6
2020-Jun-02 07:20 348 1 gusting 2 10.6
2020-Jun-02 07:15 339 1 gusting 2 10.6
2020-Jun-02 07:10 350 10.6
2020-Jun-02 07:05 10.6
2020-Jun-02 07:00 351 10.6
2020-Jun-02 06:55 312 0 gusting 1 11.1
2020-Jun-02 06:50 295 11.1
2020-Jun-02 06:45 320 1 gusting 1 11.1
2020-Jun-02 06:40 11.1
2020-Jun-02 06:35 271 0 gusting 1 11.1
2020-Jun-02 06:30 251 11.1
2020-Jun-02 06:25 240 1 gusting 1 11.7
2020-Jun-02 06:20 270 1 gusting 2 11.7
2020-Jun-02 06:15 292 1 gusting 2 11.7
2020-Jun-02 06:10 308 1 gusting 4 11.7
2020-Jun-02 06:05 252 1 gusting 4 11.7
2020-Jun-02 06:00 296 2 gusting 4 11.7
2020-Jun-02 05:55 285 1 gusting 4 11.7
2020-Jun-02 05:50 270 2 gusting 5 11.7
2020-Jun-02 05:45 282 2 gusting 4 11.7
2020-Jun-02 05:40 286 2 gusting 4 11.7
2020-Jun-02 05:35 282 1 gusting 4 11.7
2020-Jun-02 05:30 292 0 gusting 1 11.7
2020-Jun-02 05:25 297 0 gusting 1 11.7
2020-Jun-02 05:20 306 0 gusting 1 12.2
2020-Jun-02 05:15 305 1 gusting 1 12.2
2020-Jun-02 05:10 270 2 gusting 4 12.2
2020-Jun-02 05:05 242 3 gusting 4 12.2
2020-Jun-02 05:00 212 1 gusting 4 12.2
2020-Jun-02 04:55 260 3 gusting 5 12.2
2020-Jun-02 04:50 249 4 gusting 5 12.8
2020-Jun-02 04:45 279 3 gusting 5 12.8
2020-Jun-02 04:40 292 3 gusting 5 12.8
2020-Jun-02 04:35 280 3 gusting 5 12.8
2020-Jun-02 04:30 270 3 gusting 6 12.8
2020-Jun-02 04:25 279 5 gusting 6 12.8
2020-Jun-02 04:20 248 5 gusting 6 12.8
2020-Jun-02 04:15 269 5 gusting 6 12.8
2020-Jun-02 04:10 244 5 gusting 7 12.8
2020-Jun-02 04:05 248 4 gusting 6 12.8
2020-Jun-02 04:00 289 5 gusting 6 13.3
2020-Jun-02 03:55 279 6 gusting 8 13.3
2020-Jun-02 03:50 270 5 gusting 7 13.3
2020-Jun-02 03:45 263 5 gusting 6 13.9
2020-Jun-02 03:40 258 5 gusting 6 13.9
2020-Jun-02 03:35 244 4 gusting 6 14.4
2020-Jun-02 03:30 258 4 gusting 6 14.4
2020-Jun-02 03:25 239 5 gusting 7 14.4
2020-Jun-02 03:20 275 4 gusting 7 14.4
2020-Jun-02 03:15 289 5 gusting 6 14.4
2020-Jun-02 03:10 253 6 gusting 8 14.4
2020-Jun-02 03:05 255 5 gusting 7 14.4
2020-Jun-02 03:00 213 6 gusting 8 15.0
2020-Jun-02 02:55 287 5 gusting 8 15.0
2020-Jun-02 02:50 246 5 gusting 8 15.6
2020-Jun-02 02:45 270 6 gusting 7 16.1
2020-Jun-02 02:40 243 5 gusting 7 16.1
2020-Jun-02 02:35 288 6 gusting 7 16.1
2020-Jun-02 02:30 240 6 gusting 6 16.1
2020-Jun-02 02:25 295 6 gusting 7 16.7
2020-Jun-02 02:20 260 6 gusting 6 17.2
2020-Jun-02 02:15 286 5 gusting 7 17.2
2020-Jun-02 02:10 273 5 gusting 7 17.8
2020-Jun-02 02:05 248 5 gusting 6 18.3
2020-Jun-02 02:00 290 2 gusting 6 18.3
2020-Jun-02 01:55 279 3 gusting 5 18.3
2020-Jun-02 01:50 304 6 gusting 8 18.3
2020-Jun-02 01:45 218 4 gusting 7 18.9
2020-Jun-02 01:40 270 3 gusting 6 18.9
2020-Jun-02 01:35 236 4 gusting 6 18.9
2020-Jun-02 01:30 270 4 gusting 6 18.3
2020-Jun-02 01:25 269 5 gusting 7 19.4
2020-Jun-02 01:20 256 4 gusting 6 18.9
2020-Jun-02 01:15 270 4 gusting 6 18.9
2020-Jun-02 01:10 303 4 gusting 7 19.4
2020-Jun-02 01:05 315 4 gusting 6 19.4
2020-Jun-02 01:00 323 3 gusting 5 18.9
2020-Jun-02 00:55 233 4 gusting 6 18.9
2020-Jun-02 00:50 261 4 gusting 6 19.4
2020-Jun-02 00:45 302 4 gusting 5 19.4
2020-Jun-02 00:40 352 5 gusting 6 19.4
2020-Jun-02 00:35 270 4 gusting 6 18.9
2020-Jun-02 00:30 278 4 gusting 6 19.4
2020-Jun-02 00:25 248 3 gusting 6 19.4
2020-Jun-02 00:20 292 6 gusting 7 19.4
2020-Jun-02 00:15 281 5 gusting 7 19.4
2020-Jun-02 00:10 307 4 gusting 6 18.9
2020-Jun-02 00:05 270 4 gusting 6 19.4
2020-Jun-02 00:00 271 5 gusting 7 19.4
2020-Jun-01 23:55 248 4 gusting 7 19.4
2020-Jun-01 23:50 292 5 gusting 6 20.0
2020-Jun-01 23:45 248 5 gusting 6 20.0
2020-Jun-01 23:40 242 4 gusting 7 19.4
2020-Jun-01 23:35 292 3 gusting 6 19.4
2020-Jun-01 23:30 262 3 gusting 6 19.4
2020-Jun-01 23:25 225 5 gusting 6 20.0
2020-Jun-01 23:20 248 2 gusting 6 19.4
2020-Jun-01 23:15 243 3 gusting 6 18.9
2020-Jun-01 23:10 292 5 gusting 6 20.0
2020-Jun-01 23:05 246 4 gusting 6 20.0
2020-Jun-01 23:00 292 5 gusting 6 20.0
2020-Jun-01 22:55 235 3 gusting 5 20.0
2020-Jun-01 22:50 237 4 gusting 6 20.6
2020-Jun-01 22:45 268 5 gusting 6 20.6
2020-Jun-01 22:40 248 2 gusting 4 20.0
2020-Jun-01 22:35 270 4 gusting 5 20.6
2020-Jun-01 22:30 226 2 gusting 5 19.4
2020-Jun-01 22:25 244 2 gusting 5 19.4
2020-Jun-01 22:20 257 4 gusting 6 20.0
2020-Jun-01 22:15 225 5 gusting 6 20.0
2020-Jun-01 22:10 261 5 gusting 7 19.4
2020-Jun-01 22:05 248 5 gusting 7 20.0
2020-Jun-01 22:00 218 5 gusting 7 19.4
2020-Jun-01 21:55 202 4 gusting 7 19.4
2020-Jun-01 21:50 238 5 gusting 7 19.4
2020-Jun-01 21:45 248 5 gusting 6 20.0
2020-Jun-01 21:40 181 2 gusting 6 19.4
2020-Jun-01 21:35 266 5 gusting 6 19.4
2020-Jun-01 21:30 229 5 gusting 6 18.9
2020-Jun-01 21:25 269 5 gusting 6 18.9
2020-Jun-01 21:20 213 5 gusting 7 18.9
2020-Jun-01 21:15 267 6 gusting 7 18.9
2020-Jun-01 21:10 286 3 gusting 6 18.3
2020-Jun-01 21:05 261 5 gusting 6 18.3
2020-Jun-01 21:00 278 5 gusting 7 18.3
2020-Jun-01 20:55 289 6 gusting 6 18.3
2020-Jun-01 20:50 235 4 gusting 8 18.3
2020-Jun-01 20:45 272 5 gusting 6 18.3
2020-Jun-01 20:40 228 5 gusting 6 18.3
2020-Jun-01 20:35 299 4 gusting 7 17.8
2020-Jun-01 20:30 280 5 gusting 6 18.3
2020-Jun-01 20:25 280 4 gusting 6 17.8
2020-Jun-01 20:20 246 6 gusting 8 17.8
2020-Jun-01 20:15 298 4 gusting 6 17.8
2020-Jun-01 20:10 235 4 gusting 6 17.8
2020-Jun-01 20:05 238 4 gusting 8 17.8
2020-Jun-01 20:00 315 5 gusting 8 17.8
2020-Jun-01 19:55 238 2 gusting 6 17.2
2020-Jun-01 19:50 280 5 gusting 6 17.2
2020-Jun-01 19:45 248 6 gusting 8 17.8
2020-Jun-01 19:40 283 2 gusting 6 17.2
2020-Jun-01 19:35 260 5 gusting 6 17.8
2020-Jun-01 19:30 239 4 gusting 6 17.2
2020-Jun-01 19:25 202 4 gusting 6 17.2
2020-Jun-01 19:20 311 4 gusting 6 17.2
2020-Jun-01 19:15 248 5 gusting 6 17.2
2020-Jun-01 19:10 252 5 gusting 7 17.2
2020-Jun-01 19:05 270 4 gusting 6 17.2
2020-Jun-01 19:00 238 5 gusting 6 17.2
2020-Jun-01 18:55 234 5 gusting 6 17.2
2020-Jun-01 18:50 236 4 gusting 5 17.2
2020-Jun-01 18:45 264 4 gusting 6 17.2
2020-Jun-01 18:40 277 2 gusting 5 17.2
2020-Jun-01 18:35 261 4 gusting 6 17.2
2020-Jun-01 18:30 282 4 gusting 6 16.7
2020-Jun-01 18:25 248 4 gusting 5 17.2
2020-Jun-01 18:20 225 3 gusting 6 16.7
2020-Jun-01 18:15 248 4 gusting 5 16.7
2020-Jun-01 18:10 259 4 gusting 6 17.2
2020-Jun-01 18:05 262 2 gusting 5 16.7
2020-Jun-01 18:00 225 2 gusting 5 17.2
2020-Jun-01 17:55 230 2 gusting 5 16.1
2020-Jun-01 17:50 237 4 gusting 5 16.1
2020-Jun-01 17:45 238 4 gusting 6 16.1
2020-Jun-01 17:40 249 5 gusting 5 16.1
2020-Jun-01 17:35 324 3 gusting 5 16.1
2020-Jun-01 17:30 281 2 gusting 5 15.6
2020-Jun-01 17:25 261 3 gusting 5 15.6
2020-Jun-01 17:20 267 2 gusting 5 15.6
2020-Jun-01 17:15 281 3 gusting 5 16.1
2020-Jun-01 17:10 271 3 gusting 5 15.0
2020-Jun-01 17:05 286 2 gusting 6 14.4
2020-Jun-01 17:00 237 3 gusting 6 15.0
2020-Jun-01 16:55 270 4 gusting 6 15.0
2020-Jun-01 16:50 282 3 gusting 6 14.4
2020-Jun-01 16:45 261 2 gusting 6 14.4
2020-Jun-01 16:40 279 5 gusting 6 14.4
2020-Jun-01 16:35 305 4 gusting 6 14.4
2020-Jun-01 16:30 246 4 gusting 5 15.0
2020-Jun-01 16:25 267 4 gusting 6 14.4
2020-Jun-01 16:20 244 4 gusting 6 15.0
2020-Jun-01 16:15 206 3 gusting 5 14.4
2020-Jun-01 16:05 193 4 gusting 5 14.4
2020-Jun-01 16:00 270 2 gusting 5 14.4
2020-Jun-01 15:55 290 1 gusting 4 13.9
2020-Jun-01 15:45 246 1 gusting 4 13.9
2020-Jun-01 15:40 259 3 gusting 5 13.9
2020-Jun-01 15:35 267 2 gusting 4 13.3
2020-Jun-01 15:30 267 3 gusting 6 13.3
2020-Jun-01 15:25 308 2 gusting 4 13.3
2020-Jun-01 15:20 274 2 gusting 4 13.3
2020-Jun-01 15:15 282 3 gusting 5 12.8
2020-Jun-01 15:10 274 2 gusting 5 12.2
2020-Jun-01 15:05 302 2 gusting 4 12.2
2020-Jun-01 15:00 286 0 gusting 4 12.2
2020-Jun-01 14:55 237 1 gusting 1 12.2
2020-Jun-01 14:50 257 2 gusting 2 12.2
2020-Jun-01 14:45 11.7
2020-Jun-01 14:40 213 1 gusting 4 11.7
2020-Jun-01 14:35 11.7
2020-Jun-01 13:45 10.6
2020-Jun-01 13:40 10.0
2020-Jun-01 13:35 10.0
2020-Jun-01 13:30 316 0 gusting 1 10.0
2020-Jun-01 13:25 10.0
2020-Jun-01 13:20 270 1 gusting 1 10.0
2020-Jun-01 13:15 10.0
2020-Jun-01 13:10 323 10.0
2020-Jun-01 13:05 304 10.0
2020-Jun-01 13:00 260 10.0
2020-Jun-01 12:55 284 9.4
2020-Jun-01 12:50 282 9.4
2020-Jun-01 12:45 270 9.4
2020-Jun-01 12:40 297 0 gusting 2 9.4
2020-Jun-01 12:35 259 0 gusting 1 9.4
2020-Jun-01 12:30 274 9.4
2020-Jun-01 12:25 292 0 gusting 1 9.4
2020-Jun-01 12:20 289 0 gusting 1 9.4
2020-Jun-01 12:15 304 9.4
2020-Jun-01 12:10 313 9.4
2020-Jun-01 12:05 298 9.4
2020-Jun-01 12:00 286 0 gusting 0 9.4
2020-Jun-01 11:55 350 0 gusting 1 9.4
2020-Jun-01 11:50 292 9.4
2020-Jun-01 11:45 306 9.4
2020-Jun-01 11:40 279 9.4
2020-Jun-01 11:35 258 9.4
2020-Jun-01 11:30 258 9.4
2020-Jun-01 11:25 279 0 gusting 1 9.4
2020-Jun-01 11:20 309 9.4
2020-Jun-01 11:15 270 9.4
2020-Jun-01 11:10 270 9.4
2020-Jun-01 11:05 280 10.0
2020-Jun-01 11:00 282 10.0
2020-Jun-01 10:55 318 10.0
2020-Jun-01 10:50 315 10.0
2020-Jun-01 10:45 326 10.0
2020-Jun-01 10:40 311 10.0
2020-Jun-01 10:35 10.6
2020-Jun-01 10:30 321 10.6
2020-Jun-01 10:25 270 10.6
2020-Jun-01 10:20 270 0 gusting 4 10.6
2020-Jun-01 10:15 282 2 gusting 4 10.6
2020-Jun-01 10:10 262 1 gusting 1 10.6
2020-Jun-01 10:05 275 1 gusting 1 10.6
2020-Jun-01 10:00 291 1 gusting 1 10.6
2020-Jun-01 09:55 270 10.6
2020-Jun-01 09:50 323 1 gusting 2 10.6
2020-Jun-01 09:45 303 1 gusting 4 10.6
2020-Jun-01 09:40 347 1 gusting 1 10.6
2020-Jun-01 09:35 295 1 gusting 4 10.6
2020-Jun-01 09:30 292 1 gusting 5 10.6
2020-Jun-01 09:25 292 1 gusting 4 10.6
2020-Jun-01 09:20 279 2 gusting 4 10.6
2020-Jun-01 09:15 279 1 gusting 5 10.6
2020-Jun-01 09:10 323 2 gusting 5 10.6
2020-Jun-01 09:05 285 1 gusting 1 10.6
2020-Jun-01 09:00 270 1 gusting 2 10.6
2020-Jun-01 08:55 282 1 gusting 2 10.6
2020-Jun-01 08:50 301 1 gusting 2 10.6
2020-Jun-01 08:45 299 1 gusting 2 10.6
2020-Jun-01 08:40 10.6
2020-Jun-01 08:35 10.6
2020-Jun-01 08:30 10.6
2020-Jun-01 08:25 10.6
2020-Jun-01 08:20 10.6
2020-Jun-01 08:15 10.6
2020-Jun-01 08:10 10.6
2020-Jun-01 08:05 270 0 gusting 2 10.6
2020-Jun-01 08:00 292 1 gusting 2 10.6